CST,Max TemperatureF,Mean TemperatureF,Min TemperatureF,Max Dew PointF,MeanDew PointF,Min DewpointF,Max Humidity, Mean Humidity, Min Humidity, Max Sea Level PressureIn, Mean Sea Level PressureIn, Min Sea Level PressureIn, Max VisibilityMiles, Mean VisibilityMiles, Min VisibilityMiles, Max Wind SpeedMPH, Mean Wind SpeedMPH, Max Gust SpeedMPH,PrecipitationIn, CloudCover, Events, WindDirDegrees
2013-2-1,52,32,13,30,21,4,83,67,36,30.25,30.08,29.95,10,10,10,17,8,24,0.03,5,,242
2013-2-2,54,38,21,32,24,19,94,62,26,30.24,30.17,30.11,10,10,10,32,13,40,0.00,0,,297
2013-2-3,52,34,17,27,22,15,91,63,31,30.24,30.03,29.81,10,10,10,22,9,29,0.00,0,,262
2013-2-4,51,36,21,29,25,19,91,69,35,29.97,29.88,29.82,10,10,7,14,7,,0.00,0,,225
2013-2-5,55,38,21,29,24,18,92,59,27,30.04,29.95,29.85,10,10,10,15,8,22,0.00,1,,315
2013-2-6,60,48,35,38,32,28,74,57,34,29.94,29.84,29.75,10,10,10,20,12,23,0.00,2,,169
2013-2-7,55,42,27,30,24,14,86,56,23,30.18,30.08,29.96,10,10,7,17,11,23,0.00,1,,345
2013-2-8,46,34,21,31,27,20,96,78,51,30.19,30.06,29.89,10,8,0,25,12,32,0.00,1,Fog-Snow,146
2013-2-9,50,40,29,40,32,26,95,78,46,29.89,29.70,29.42,10,8,4,26,17,31,0.09,4,Rain-Thunderstorm,148
2013-2-10,38,32,27,38,28,21,97,82,70,29.96,29.54,29.18,10,9,3,40,21,52,0.25,6,Rain-Thunderstorm,324
2013-2-11,36,27,18,23,18,14,87,70,48,30.15,30.09,29.98,10,10,10,20,12,24,0.00,0,,302
2013-2-12,42,30,17,24,18,13,91,68,31,30.08,30.01,29.94,10,10,10,23,7,37,0.00,0,,295
2013-2-13,52,38,23,32,24,19,88,63,34,29.94,29.87,29.79,10,10,10,22,12,26,0.00,2,,297
2013-2-14,41,30,18,31,23,15,91,71,41,30.31,30.11,29.92,10,10,10,32,13,43,0.00,3,,316
2013-2-15,36,24,12,21,13,8,90,71,33,30.34,30.32,30.28,10,10,10,26,8,33,0.00,2,,313
2013-2-16,56,34,13,29,21,9,88,63,32,30.30,30.04,29.92,10,10,10,26,7,36,0.00,3,,265
2013-2-17,62,41,20,30,23,18,92,59,22,29.92,29.71,29.52,10,10,10,31,5,39,0.00,0,,280
2013-2-18,42,34,24,30,21,15,78,55,37,30.12,29.86,29.57,10,10,10,34,24,43,0.00,3,,337
2013-2-19,35,24,14,17,10,1,89,60,34,30.27,30.20,30.13,10,10,10,15,8,18,0.00,0,,22
2013-2-20,24,18,12,22,11,2,91,74,49,30.19,30.07,29.97,10,5,0,18,13,24,0.10,6,Snow,109
2013-2-21,19,15,11,17,14,8,91,87,84,30.00,29.91,29.84,10,3,0,18,15,24,0.08,8,Snow,46
2013-2-22,23,11,-1,17,8,-5,90,83,74,30.00,29.95,29.90,10,9,0,14,9,,0.01,0,Fog,297
2013-2-23,36,17,-2,28,21,-7,95,82,67,29.93,29.80,29.72,10,6,0,12,2,,0.00,2,Fog,223
2013-2-24,33,22,10,28,25,8,95,89,80,30.06,29.90,29.78,7,2,0,16,4,,0.03,8,Fog-Snow,12
2013-2-25,34,22,10,31,24,8,96,86,71,30.06,29.99,29.90,10,9,4,16,7,,0.02,3,Snow,351
2013-2-26,33,17,1,26,14,-2,93,85,68,29.95,29.87,29.81,10,10,5,13,7,,0.00,1,,316
2013-2-27,33,28,23,29,24,18,90,81,69,30.18,30.09,29.95,10,9,4,24,14,29,0.00,5,,329
2013-2-28,35,26,14,28,22,13,93,85,72,30.24,30.20,30.16,10,9,0,15,10,22,0.00,2,Fog,326